星链-34786 (STARLINK-34786)

导读

STARLINK-34786是美国太空探索技术公司星链星座的卫星,星链计划旨在构建全球卫星互联网星座,为全球提供高速互联网服务。该卫星于2025年8月30日发射升空,入轨后将参与星座组网,补充完善星链星座的服务覆盖能力,进一步提升星链系统在全球通信服务方面的稳定性与覆盖范围。

Basic Information
目录编号:
65391
目录名称:
STARLINK-34786
国际标识:
2025-191N
轨道中心:
EARTH
卫星名称:
星链-34786
卫星全名:
星链-34786 (STARLINK-34786)
卫星状态:
在轨 (已飞行379 天)
发射日期:
2025-08-30 UTC
国别 :
美国 (US)
星等 :
--
This satellite is enrolled in the Space Conjunction Data Service (SCDS) and the current flight risk assessment level is: No High Risk
Orbit Information
数据来源 国际轨道数据
星历时间: 2026-09-12T10:58:20+0800
1天前
查看轨道信息
半长轴: 6843.729km
偏心率: 0.0002385
轨道倾角: 97.283°
近地点辐角 106.389°
升交点赤经 121.252°
平近点角 253.762°
近地点: 463.959km
远地点: 467.225km
周期: 93.907分钟
每日圈数: 15.334289
Detailed Information
固有亮度:
5
最大亮度:
2.5
卫星平台:
Starlink V1.0
覆盖范围:
全球
运营商:
太空探索技术公司
运营商所在国:
美国
制造商(研发单位):
太空探索技术公司
制造商所在国:
美国
使用方式:
暂无
Satellite Introduction
Starlink 计划是 SpaceX 推出的全球卫星互联网项目,通过发射低轨道卫星,为全球尤其是偏远地区提供高速、低延迟的互联网服务。自 2019 年起,Starlink 已部署数千颗卫星,旨在缩小全球数字鸿沟,推动互联网普及。该项目还为军事、航空等行业提供通信支持,带来广泛经济效益。
2D Orbit Map
3D Orbit Map
Orbit Altitude Analysis Chart
Orbit Inclination Analysis Chart
Orbit Comprehensive Analysis Chart
View Comprehensive Chart
Conjunction Data List
Event ID Objects TCA Miss Dist (km) Collision Risk Probability Collision Risk Index (CRI) Action
CDM_260910-060805-196006-539121
2026-09-10T
06:08:14+0000
2.759 km
极远距离
1.44516E-6 低风险 0.38
CDM_260914-082304-945606-539121
2026-09-14T
08:23:26+0000
2.805 km
极远距离
9.975168E-7 极低风险 0.35
Miss Distance Evolution Trend with All Objects
Collision Probability Evolution Trend with All Objects